Flag for Germany Weather past 2 weeks in Schwäbisch Hall, Baden-Württemberg, Germany

Now
33 °F

Light snow. Overcast.


Feels Like: 33 °F
Forecast: 26 / 34 °F
Wind: 2 mph from Southwest

Location: Oehringen

Current Time: Feb 1, 2015 at 5:27:40 AM

Latest Report: Feb 1, 2015 at 5:00 AM


Visibility: 15 mi

Pressure: 29.18 "Hg

Humidity: 81%

Dew point: 28 °F

Location of Schwäbisch HallLocation

Historic Weather in Schwäbisch Hall — Graph

°F

Schwäbisch Hall temperature yesterday

Maximum temperature yesterday: 37 °F (at 4:00 PM)
Minimum temperature yesterday: 31 °F (at 9:00 AM)
Average temperature yesterday: 34 °F

Past Weeks' High & Low Weather Summary

 TemperatureHumidityPressure
High40 °F (Jan 28, 5:00 PM)99% (Jan 20, 2:00 AM)30.45 "Hg (Jan 20, 2:00 AM)
Low27 °F (Jan 21, 4:00 AM)67% (Jan 19, 12:00 PM)28.76 "Hg (Jan 30, 1:00 AM)
Average34 °F89%29.87 "Hg
* Reported Jan 17 4:00 AM — Feb 1 4:00 AM, Schwäbisch Hall, Weather by CustomWeather, © 2014

Note: Actual official high and low records may vary slightly from our data, if they occured in-between our weather recording intervals... More about our weather records

Advertising

Schwäbisch Hall weather history for previous 24 hours

 ConditionsComfort  
Time TempWeatherWind HumidityBarometerVisibility
4:00 AM
Feb 1
32 °FOvercast.1 mph87%29.18 "Hg14 mi
3:00 AM32 °FOvercast.3 mph88%29.18 "Hg10 mi
2:00 AM31 °FClear.2 mph91%29.18 "Hg7 mi
1:00 AM31 °FClear.2 mph92%29.18 "Hg7 mi
12:00 AM33 °FOvercast.1 mph92%29.21 "Hg7 mi
11:00 PM
Jan 31
33 °FOvercast.3 mph89%29.18 "Hg9 mi
10:00 PM34 °FLow clouds.5 mph93%29.18 "Hg6 mi
9:00 PM33 °FLow clouds.2 mph96%29.18 "Hg3 mi
8:00 PM33 °FSnow. Low clouds.No wind96%29.15 "Hg1 mi
7:00 PM33 °FLight snow. Overcast.1 mph93%29.15 "Hg2 mi
6:00 PM36 °FDrizzle. Overcast.2 mph80%29.12 "Hg10 mi
5:00 PM37 °FOvercast.2 mph76%29.12 "Hg19 mi
4:00 PM37 °FOvercast.2 mph72%29.09 "Hg19 mi
3:00 PM37 °FOvercast.3 mph75%29.09 "Hg19 mi
2:00 PM36 °FOvercast.3 mph77%29.09 "Hg15 mi
1:00 PM35 °FOvercast.2 mph79%29.09 "Hg16 mi
12:00 PM35 °FFog.3 mph79%29.09 "Hg16 mi
11:00 AM34 °FOvercast.3 mph81%29.09 "Hg16 mi
10:00 AM33 °FOvercast.3 mph84%29.06 "Hg12 mi
9:00 AM31 °FLight snow. Overcast.2 mph90%29.06 "Hg3 mi
8:00 AM32 °FLight snow. Overcast.5 mph88%29.06 "Hg3 mi
7:00 AM32 °FOvercast.5 mph85%29.03 "Hg15 mi
6:00 AM33 °FOvercast.6 mph84%29.03 "Hg19 mi
5:00 AM33 °FLow clouds.6 mph91%29.03 "Hg10 mi
Weather by CustomWeather, © 2014

See weather overviewHow to use our weather pages